Precipitable_Water
0.99 1.01 1.01 1.01 1.01 1.01 1.01 1.03 1.05 1.03 1.01 0.97 0.95 0.95 0.93 0.93 0.91 0.91 0.91 0.91 0.91 0.93 0.97 0.99 0.99 0.99 0.99 1.01 1.03 1.05 1.07 1.07 1.03 1.03 1.01 0.97 0.97 0.97 0.97 0.97 0.97 0.97 0.99 0.99 1.01 1.03 1.05 1.07 1.09 1.07 1.05 1.09 1.11 1.17 1.23 1.27 1.29 1.33 1.33 1.35 1.31 1.29 1.27 1.27 1.27 1.27 1.29 1.29 1.31
0.97 1.01 1.03 1.03 1.05 1.05 1.05 1.05 1.05 1.03 1.01 0.99 0.97 0.95 0.93 0.91 0.89 0.89 0.91 0.91 0.91 0.93 0.95 0.97 0.97 0.99 0.99 0.99 1.03 1.03 1.03 0.99 0.97 0.97 0.97 0.95 0.95 0.93 0.93 0.93 0.93 0.91 0.91 0.91 0.93 0.95 0.97 0.97 0.99 0.99 0.99 1.01 1.03 1.07 1.11 1.19 1.23 1.27 1.29 1.29 1.27 1.25 1.25 1.23 1.23 1.23 1.25 1.25 1.27
0.97 1.01 1.03 1.07 1.07 1.05 1.05 1.05 1.03 1.03 1.01 0.99 0.97 0.95 0.91 0.89 0.89 0.89 0.89 0.91 0.93 0.95 0.97 0.95 0.95 0.95 0.95 0.97 0.97 0.97 0.95 0.93 0.93 0.93 0.91 0.91 0.91 0.89 0.89 0.89 0.87 0.87 0.87 0.87 0.89 0.89 0.91 0.93 0.93 0.95 0.97 0.97 0.99 1.01 1.05 1.13 1.17 1.19 1.21 1.23 1.23 1.21 1.21 1.19 1.21 1.21 1.23 1.23 1.25
0.95 0.97 1.01 1.05 1.05 1.05 1.03 1.03 1.03 1.01 0.99 0.99 0.97 0.93 0.91 0.89 0.89 0.91 0.93 0.95 0.97 0.97 0.95 0.93 0.93 0.93 0.93 0.93 0.91 0.91 0.91 0.91 0.91 0.89 0.89 0.87 0.87 0.85 0.85 0.85 0.83 0.83 0.83 0.83 0.83 0.85 0.85 0.85 0.87 0.91 0.93 0.95 0.95 0.97 0.99 1.03 1.11 1.15 1.17 1.19 1.19 1.19 1.19 1.17 1.19 1.19 1.21 1.21 1.21
0.91 0.93 0.97 0.99 1.01 1.01 1.01 1.01 1.01 1.01 0.99 0.97 0.95 0.91 0.89 0.89 0.93 0.95 0.95 0.97 0.95 0.93 0.91 0.89 0.89 0.89 0.89 0.87 0.87 0.89 0.89 0.89 0.87 0.87 0.85 0.85 0.83 0.81 0.81 0.81 0.79 0.79 0.79 0.79 0.79 0.79 0.81 0.83 0.85 0.89 0.91 0.93 0.95 0.97 0.99 1.01 1.07 1.11 1.13 1.15 1.15 1.15 1.15 1.15 1.15 1.17 1.19 1.19 1.19
0.87 0.89 0.93 0.95 0.97 0.97 0.97 0.97 0.97 0.97 0.97 0.95 0.91 0.91 0.89 0.91 0.93 0.95 0.93 0.91 0.91 0.89 0.89 0.87 0.87 0.85 0.85 0.85 0.85 0.85 0.85 0.83 0.83 0.83 0.81 0.79 0.79 0.77 0.77 0.77 0.77 0.77 0.77 0.77 0.79 0.81 0.83 0.83 0.83 0.85 0.87 0.93 0.95 0.97 1.01 1.03 1.05 1.09 1.11 1.11 1.13 1.13 1.13 1.13 1.15 1.15 1.17 1.17 1.17
0.85 0.87 0.89 0.91 0.93 0.93 0.95 0.95 0.95 0.95 0.93 0.91 0.91 0.91 0.91 0.93 0.91 0.91 0.89 0.87 0.87 0.85 0.85 0.83 0.83 0.81 0.83 0.83 0.83 0.83 0.81 0.79 0.79 0.77 0.77 0.77 0.77 0.77 0.76 0.76 0.76 0.76 0.77 0.77 0.81 0.83 0.85 0.85 0.85 0.85 0.87 0.91 0.93 0.97 1.01 1.03 1.05 1.05 1.07 1.09 1.11 1.13 1.13 1.11 1.11 1.13 1.15 1.15 1.13
0.85 0.85 0.87 0.89 0.91 0.93 0.93 0.93 0.93 0.93 0.91 0.91 0.91 0.91 0.91 0.91 0.89 0.87 0.85 0.83 0.83 0.81 0.79 0.79 0.81 0.81 0.83 0.83 0.81 0.79 0.79 0.77 0.76 0.77 0.76 0.76 0.76 0.76 0.74 0.74 0.76 0.76 0.77 0.79 0.81 0.85 0.85 0.87 0.87 0.87 0.87 0.87 0.91 0.95 0.97 1.01 1.03 1.05 1.05 1.07 1.09 1.11 1.11 1.11 1.13 1.13 1.13 1.13 1.13
0.79 0.81 0.85 0.89 0.89 0.91 0.91 0.91 0.91 0.91 0.89 0.91 0.91 0.91 0.91 0.89 0.85 0.81 0.81 0.79 0.79 0.79 0.79 0.79 0.81 0.81 0.81 0.79 0.79 0.77 0.77 0.76 0.76 0.76 0.74 0.74 0.72 0.74 0.74 0.76 0.76 0.77 0.79 0.81 0.85 0.87 0.89 0.89 0.89 0.89 0.91 0.91 0.91 0.93 0.97 0.99 1.01 1.01 1.03 1.05 1.07 1.09 1.11 1.11 1.11 1.11 1.11 1.09 1.09
0.77 0.79 0.83 0.85 0.87 0.89 0.89 0.91 0.91 0.89 0.87 0.87 0.87 0.87 0.85 0.83 0.79 0.77 0.77 0.77 0.77 0.79 0.79 0.79 0.79 0.79 0.77 0.77 0.76 0.76 0.76 0.76 0.74 0.72 0.72 0.72 0.72 0.74 0.76 0.77 0.79 0.79 0.81 0.83 0.87 0.89 0.91 0.91 0.91 0.91 0.93 0.93 0.93 0.95 0.97 0.99 0.99 0.99 1.01 1.03 1.05 1.05 1.07 1.07 1.09 1.09 1.07 1.05 1.05
0.77 0.79 0.83 0.83 0.85 0.85 0.87 0.85 0.85 0.83 0.81 0.81 0.79 0.79 0.77 0.77 0.77 0.77 0.77 0.79 0.77 0.77 0.77 0.77 0.76 0.76 0.74 0.74 0.74 0.74 0.74 0.74 0.72 0.70 0.72 0.72 0.74 0.76 0.77 0.81 0.81 0.83 0.85 0.87 0.89 0.91 0.91 0.91 0.91 0.91 0.93 0.93 0.93 0.95 0.95 0.97 0.97 0.97 0.99 1.01 1.03 1.03 1.03 1.05 1.05 1.05 1.03 1.01 1.01
0.77 0.79 0.81 0.83 0.83 0.83 0.83 0.83 0.81 0.79 0.79 0.79 0.79 0.77 0.77 0.77 0.77 0.77 0.77 0.76 0.76 0.76 0.74 0.74 0.72 0.72 0.70 0.70 0.70 0.70 0.70 0.70 0.70 0.72 0.74 0.76 0.77 0.77 0.79 0.81 0.83 0.85 0.85 0.85 0.85 0.87 0.87 0.89 0.89 0.89 0.89 0.91 0.93 0.93 0.93 0.95 0.93 0.95 0.95 0.97 0.99 0.99 0.99 1.01 1.01 1.01 0.99 0.97 0.97
0.79 0.81 0.81 0.81 0.81 0.81 0.79 0.79 0.79 0.77 0.77 0.77 0.77 0.77 0.76 0.76 0.76 0.76 0.74 0.72 0.72 0.72 0.70 0.70 0.68 0.68 0.68 0.66 0.66 0.66 0.64 0.64 0.68 0.70 0.74 0.76 0.76 0.77 0.77 0.79 0.81 0.79 0.76 0.77 0.79 0.79 0.81 0.81 0.83 0.83 0.85 0.87 0.89 0.89 0.91 0.89 0.89 0.91 0.91 0.93 0.95 0.95 0.95 0.95 0.97 0.97 0.97 0.97 0.97
0.77 0.79 0.81 0.79 0.79 0.77 0.77 0.77 0.77 0.76 0.76 0.76 0.76 0.76 0.76 0.74 0.74 0.72 0.70 0.70 0.68 0.68 0.66 0.66 0.66 0.64 0.64 0.62 0.60 0.60 0.60 0.62 0.66 0.68 0.70 0.70 0.72 0.72 0.72 0.72 0.72 0.68 0.66 0.66 0.68 0.68 0.70 0.70 0.72 0.76 0.77 0.79 0.83 0.85 0.85 0.81 0.83 0.85 0.87 0.89 0.89 0.91 0.91 0.93 0.93 0.93 0.95 0.95 0.95
0.76 0.77 0.77 0.77 0.77 0.76 0.76 0.76 0.76 0.74 0.74 0.74 0.74 0.74 0.74 0.72 0.72 0.70 0.68 0.66 0.66 0.64 0.64 0.64 0.62 0.60 0.58 0.56 0.56 0.58 0.60 0.62 0.64 0.64 0.64 0.64 0.64 0.64 0.64 0.62 0.58 0.56 0.56 0.58 0.58 0.58 0.60 0.60 0.62 0.64 0.68 0.72 0.74 0.74 0.74 0.72 0.74 0.77 0.81 0.83 0.85 0.87 0.89 0.91 0.91 0.89 0.85 0.85 0.87
0.72 0.74 0.74 0.74 0.74 0.74 0.74 0.74 0.74 0.72 0.72 0.72 0.72 0.72 0.70 0.70 0.68 0.66 0.64 0.64 0.62 0.62 0.60 0.58 0.58 0.54 0.54 0.54 0.56 0.58 0.60 0.60 0.60 0.60 0.60 0.58 0.58 0.58 0.58 0.54 0.54 0.52 0.52 0.52 0.52 0.54 0.54 0.54 0.54 0.56 0.56 0.60 0.62 0.60 0.58 0.62 0.64 0.66 0.70 0.74 0.77 0.79 0.81 0.83 0.79 0.76 0.72 0.74 0.76
0.68 0.70 0.70 0.70 0.70 0.70 0.70 0.70 0.70 0.70 0.70 0.70 0.70 0.68 0.68 0.66 0.66 0.62 0.60 0.60 0.58 0.56 0.54 0.52 0.52 0.50 0.52 0.54 0.56 0.56 0.58 0.58 0.58 0.56 0.56 0.56 0.56 0.56 0.54 0.52 0.52 0.50 0.50 0.48 0.48 0.48 0.50 0.50 0.50 0.50 0.50 0.52 0.54 0.52 0.50 0.52 0.54 0.56 0.58 0.62 0.64 0.66 0.68 0.68 0.60 0.58 0.60 0.60 0.62
0.64 0.66 0.66 0.68 0.68 0.68 0.68 0.68 0.68 0.68 0.68 0.68 0.66 0.64 0.64 0.62 0.60 0.58 0.56 0.54 0.52 0.50 0.48 0.48 0.48 0.48 0.50 0.52 0.52 0.54 0.54 0.54 0.54 0.54 0.54 0.54 0.54 0.52 0.50 0.50 0.50 0.50 0.50 0.48 0.48 0.46 0.46 0.46 0.46 0.46 0.46 0.46 0.48 0.46 0.46 0.46 0.46 0.48 0.48 0.50 0.52 0.54 0.56 0.56 0.54 0.52 0.52 0.54 0.54
0.62 0.64 0.64 0.64 0.66 0.66 0.66 0.64 0.64 0.64 0.64 0.62 0.62 0.60 0.58 0.56 0.56 0.52 0.50 0.48 0.46 0.44 0.44 0.44 0.46 0.46 0.48 0.50 0.50 0.50 0.50 0.50 0.50 0.50 0.50 0.50 0.50 0.48 0.48 0.48 0.48 0.48 0.48 0.48 0.48 0.48 0.48 0.46 0.46 0.46 0.46 0.46 0.44 0.44 0.44 0.44 0.44 0.44 0.44 0.44 0.46 0.46 0.48 0.48 0.48 0.48 0.48 0.50 0.50
0.62 0.60 0.62 0.62 0.62 0.62 0.60 0.60 0.60 0.58 0.58 0.56 0.56 0.54 0.52 0.52 0.50 0.48 0.44 0.42 0.42 0.42 0.44 0.44 0.46 0.48 0.48 0.48 0.48 0.48 0.48 0.48 0.48 0.46 0.46 0.46 0.44 0.44 0.46 0.46 0.46 0.46 0.46 0.46 0.48 0.48 0.48 0.48 0.46 0.46 0.46 0.46 0.44 0.42 0.42 0.42 0.42 0.42 0.42 0.42 0.44 0.44 0.44 0.44 0.44 0.44 0.46 0.46 0.46
0.60 0.58 0.58 0.58 0.58 0.56 0.56 0.54 0.54 0.52 0.50 0.50 0.48 0.48 0.46 0.44 0.44 0.42 0.40 0.40 0.42 0.44 0.46 0.46 0.48 0.48 0.48 0.48 0.48 0.46 0.46 0.46 0.44 0.44 0.44 0.42 0.42 0.42 0.42 0.42 0.42 0.44 0.44 0.44 0.44 0.44 0.44 0.46 0.46 0.44 0.44 0.42 0.42 0.42 0.42 0.42 0.42 0.42 0.42 0.42 0.42 0.42 0.42 0.42 0.42 0.42 0.44 0.44 0.46
0.56 0.56 0.54 0.54 0.52 0.52 0.50 0.50 0.48 0.46 0.44 0.44 0.42 0.42 0.40 0.38 0.38 0.36 0.38 0.40 0.42 0.44 0.46 0.46 0.46 0.48 0.48 0.48 0.46 0.46 0.44 0.44 0.42 0.42 0.40 0.40 0.40 0.40 0.40 0.40 0.40 0.40 0.40 0.40 0.40 0.40 0.42 0.42 0.42 0.42 0.42 0.40 0.40 0.40 0.40 0.42 0.42 0.42 0.42 0.42 0.42 0.42 0.42 0.44 0.44 0.44 0.44 0.46 0.46
0.52 0.52 0.50 0.50 0.48 0.48 0.46 0.46 0.44 0.42 0.40 0.38 0.38 0.36 0.34 0.34 0.34 0.36 0.38 0.40 0.42 0.44 0.44 0.44 0.44 0.44 0.44 0.44 0.42 0.42 0.40 0.40 0.38 0.38 0.38 0.38 0.38 0.38 0.38 0.38 0.38 0.36 0.36 0.38 0.38 0.38 0.40 0.40 0.40 0.40 0.38 0.38 0.38 0.38 0.40 0.40 0.40 0.40 0.42 0.42 0.42 0.42 0.42 0.42 0.42 0.42 0.42 0.42 0.42
0.46 0.46 0.44 0.44 0.44 0.42 0.42 0.40 0.38 0.36 0.36 0.34 0.34 0.32 0.32 0.34 0.34 0.36 0.38 0.40 0.42 0.42 0.40 0.40 0.40 0.40 0.38 0.38 0.38 0.36 0.36 0.34 0.34 0.34 0.34 0.34 0.36 0.36 0.36 0.36 0.36 0.36 0.36 0.36 0.38 0.38 0.40 0.40 0.38 0.38 0.38 0.38 0.38 0.38 0.38 0.38 0.38 0.40 0.40 0.40 0.40 0.38 0.36 0.36 0.34 0.34 0.34 0.34 0.34
0.40 0.40 0.38 0.38 0.38 0.36 0.36 0.36 0.34 0.32 0.32 0.32 0.32 0.32 0.34 0.34 0.36 0.38 0.38 0.38 0.38 0.38 0.38 0.38 0.36 0.36 0.36 0.34 0.34 0.34 0.32 0.32 0.32 0.32 0.32 0.32 0.34 0.34 0.34 0.34 0.34 0.34 0.34 0.34 0.36 0.36 0.38 0.38 0.38 0.38 0.38 0.36 0.36 0.36 0.36 0.36 0.36 0.36 0.36 0.36 0.36 0.32 0.26 0.26 0.26 0.26 0.26 0.26 0.26
0.36 0.36 0.34 0.34 0.34 0.32 0.32 0.32 0.32 0.30 0.32 0.32 0.32 0.34 0.34 0.36 0.38 0.38 0.38 0.38 0.36 0.36 0.36 0.36 0.34 0.34 0.34 0.32 0.32 0.32 0.32 0.32 0.32 0.32 0.30 0.32 0.32 0.32 0.32 0.32 0.32 0.34 0.34 0.34 0.34 0.34 0.36 0.36 0.36 0.36 0.36 0.34 0.34 0.32 0.32 0.30 0.30 0.30 0.30 0.28 0.24 0.22 0.20 0.20 0.22 0.22 0.22 0.22 0.22
0.32 0.32 0.32 0.32 0.32 0.32 0.32 0.30 0.30 0.32 0.32 0.32 0.34 0.36 0.36 0.38 0.38 0.38 0.38 0.36 0.36 0.34 0.34 0.34 0.32 0.32 0.32 0.32 0.32 0.32 0.30 0.30 0.30 0.30 0.30 0.30 0.30 0.30 0.30 0.30 0.32 0.32 0.32 0.32 0.32 0.34 0.34 0.34 0.32 0.30 0.30 0.30 0.26 0.26 0.24 0.24 0.22 0.22 0.22 0.22 0.18 0.18 0.18 0.18 0.20 0.20 0.22 0.22 0.22
0.32 0.32 0.32 0.32 0.32 0.32 0.32 0.32 0.32 0.32 0.34 0.34 0.36 0.38 0.38 0.40 0.38 0.38 0.36 0.36 0.34 0.34 0.32 0.32 0.32 0.32 0.32 0.32 0.30 0.30 0.30 0.30 0.30 0.30 0.30 0.28 0.28 0.28 0.28 0.28 0.28 0.30 0.30 0.32 0.32 0.32 0.30 0.24 0.24 0.24 0.24 0.24 0.22 0.20 0.20 0.18 0.18 0.18 0.18 0.18 0.18 0.18 0.18 0.18 0.20 0.20 0.22 0.22 0.22
0.34 0.34 0.32 0.32 0.32 0.32 0.32 0.32 0.34 0.34 0.36 0.38 0.38 0.40 0.38 0.38 0.38 0.36 0.36 0.34 0.34 0.32 0.32 0.32 0.32 0.32 0.30 0.30 0.30 0.30 0.28 0.28 0.28 0.28 0.28 0.28 0.26 0.26 0.26 0.26 0.26 0.26 0.26 0.28 0.26 0.26 0.24 0.22 0.22 0.22 0.20 0.22 0.20 0.20 0.18 0.18 0.18 0.18 0.18 0.18 0.18 0.18 0.18 0.18 0.18 0.20 0.20 0.20 0.22
0.42 0.38 0.36 0.34 0.34 0.34 0.34 0.34 0.36 0.38 0.38 0.40 0.40 0.38 0.38 0.36 0.36 0.34 0.34 0.34 0.34 0.34 0.34 0.32 0.32 0.30 0.30 0.30 0.28 0.28 0.28 0.26 0.26 0.26 0.24 0.24 0.22 0.22 0.22 0.22 0.20 0.20 0.20 0.22 0.22 0.22 0.22 0.22 0.22 0.22 0.22 0.22 0.22 0.20 0.20 0.20 0.18 0.18 0.18 0.18 0.18 0.18 0.18 0.18 0.18 0.18 0.18 0.20 0.20
0.44 0.42 0.42 0.42 0.38 0.38 0.36 0.36 0.38 0.38 0.38 0.38 0.38 0.38 0.38 0.36 0.36 0.34 0.34 0.34 0.34 0.32 0.32 0.30 0.30 0.28 0.28 0.28 0.26 0.24 0.24 0.24 0.22 0.20 0.20 0.18 0.18 0.18 0.18 0.18 0.18 0.18 0.18 0.20 0.20 0.22 0.22 0.22 0.22 0.22 0.22 0.22 0.22 0.22 0.20 0.20 0.20 0.18 0.18 0.18 0.18 0.18 0.18 0.18 0.18 0.18 0.18 0.20 0.20
0.44 0.44 0.44 0.44 0.44 0.44 0.44 0.44 0.42 0.40 0.40 0.40 0.38 0.38 0.36 0.36 0.36 0.34 0.34 0.32 0.30 0.28 0.26 0.26 0.24 0.24 0.24 0.22 0.22 0.20 0.20 0.18 0.18 0.18 0.16 0.16 0.16 0.16 0.16 0.18 0.18 0.18 0.18 0.20 0.22 0.22 0.24 0.24 0.24 0.22 0.22 0.22 0.22 0.22 0.20 0.20 0.20 0.18 0.18 0.18 0.18 0.18 0.18 0.18 0.20 0.20 0.20 0.20 0.22
0.44 0.44 0.44 0.44 0.44 0.44 0.44 0.42 0.40 0.40 0.38 0.38 0.36 0.34 0.34 0.32 0.30 0.30 0.28 0.26 0.26 0.24 0.22 0.22 0.20 0.20 0.18 0.18 0.18 0.16 0.16 0.16 0.16 0.16 0.18 0.18 0.18 0.18 0.18 0.18 0.18 0.20 0.20 0.22 0.22 0.22 0.22 0.22 0.22 0.22 0.24 0.24 0.22 0.22 0.20 0.20 0.20 0.20 0.20 0.20 0.20 0.20 0.20 0.20 0.20 0.22 0.22 0.22 0.22
0.40 0.40 0.38 0.38 0.38 0.38 0.38 0.38 0.36 0.34 0.32 0.32 0.30 0.28 0.28 0.26 0.24 0.24 0.22 0.22 0.22 0.20 0.18 0.18 0.18 0.16 0.16 0.16 0.16 0.16 0.16 0.18 0.18 0.18 0.18 0.18 0.18 0.18 0.18 0.18 0.20 0.20 0.20 0.22 0.22 0.22 0.22 0.22 0.24 0.24 0.24 0.24 0.22 0.22 0.20 0.20 0.20 0.20 0.20 0.20 0.20 0.20 0.22 0.22 0.22 0.22 0.22 0.22 0.24
0.34 0.34 0.32 0.32 0.32 0.32 0.32 0.32 0.30 0.28 0.26 0.26 0.24 0.24 0.22 0.20 0.20 0.20 0.18 0.18 0.18 0.18 0.18 0.18 0.18 0.18 0.18 0.18 0.18 0.18 0.18 0.18 0.18 0.18 0.18 0.20 0.20 0.18 0.18 0.18 0.20 0.20 0.20 0.20 0.22 0.22 0.22 0.24 0.24 0.24 0.24 0.24 0.24 0.22 0.22 0.20 0.20 0.20 0.22 0.22 0.22 0.22 0.22 0.22 0.22 0.24 0.24 0.24 0.26
0.30 0.28 0.28 0.26 0.26 0.26 0.26 0.26 0.24 0.22 0.22 0.20 0.20 0.18 0.18 0.18 0.18 0.18 0.18 0.18 0.18 0.18 0.18 0.18 0.18 0.18 0.18 0.20 0.20 0.20 0.20 0.20 0.20 0.20 0.20 0.20 0.20 0.18 0.18 0.18 0.20 0.20 0.20 0.22 0.22 0.22 0.24 0.24 0.24 0.24 0.24 0.24 0.24 0.24 0.22 0.22 0.22 0.22 0.22 0.22 0.22 0.22 0.22 0.24 0.24 0.24 0.24 0.26 0.26
0.24 0.24 0.24 0.22 0.22 0.22 0.22 0.20 0.20 0.18 0.18 0.18 0.18 0.18 0.18 0.18 0.18 0.18 0.20 0.20 0.20 0.18 0.18 0.20 0.18 0.18 0.20 0.20 0.20 0.20 0.20 0.20 0.20 0.20 0.20 0.20 0.20 0.20 0.18 0.20 0.20 0.20 0.22 0.22 0.22 0.24 0.24 0.24 0.24 0.26 0.26 0.26 0.24 0.24 0.24 0.24 0.24 0.24 0.22 0.22 0.22 0.24 0.24 0.24 0.24 0.24 0.24 0.26 0.26
0.22 0.20 0.20 0.20 0.20 0.20 0.20 0.18 0.18 0.18 0.18 0.18 0.18 0.18 0.20 0.20 0.20 0.20 0.20 0.20 0.20 0.20 0.18 0.18 0.18 0.18 0.20 0.20 0.20 0.20 0.20 0.20 0.20 0.20 0.20 0.20 0.20 0.20 0.20 0.20 0.20 0.22 0.22 0.22 0.24 0.24 0.24 0.26 0.26 0.26 0.26 0.26 0.26 0.26 0.24 0.24 0.24 0.24 0.24 0.24 0.24 0.24 0.24 0.24 0.24 0.26 0.26 0.26 0.26
0.20 0.20 0.18 0.18 0.18 0.18 0.18 0.18 0.18 0.18 0.18 0.20 0.20 0.20 0.20 0.20 0.20 0.20 0.20 0.20 0.20 0.20 0.20 0.18 0.18 0.18 0.20 0.20 0.20 0.20 0.20 0.20 0.20 0.20 0.20 0.20 0.20 0.20 0.20 0.22 0.22 0.22 0.22 0.24 0.24 0.24 0.26 0.26 0.26 0.26 0.28 0.28 0.26 0.26 0.26 0.26 0.24 0.24 0.24 0.24 0.24 0.24 0.24 0.24 0.26 0.26 0.26 0.26 0.26
0.20 0.20 0.20 0.20 0.20 0.20 0.20 0.20 0.20 0.20 0.20 0.20 0.20 0.20 0.20 0.20 0.20 0.20 0.20 0.20 0.20 0.20 0.20 0.18 0.20 0.20 0.20 0.20 0.20 0.20 0.20 0.20 0.20 0.20 0.20 0.20 0.20 0.22 0.22 0.22 0.22 0.22 0.24 0.24 0.24 0.26 0.26 0.26 0.26 0.28 0.28 0.28 0.28 0.28 0.26 0.26 0.24 0.24 0.24 0.24 0.24 0.24 0.24 0.26 0.26 0.26 0.26 0.26 0.28
0.20 0.20 0.20 0.20 0.20 0.20 0.20 0.20 0.20 0.20 0.20 0.20 0.20 0.20 0.20 0.20 0.20 0.20 0.20 0.20 0.20 0.20 0.20 0.20 0.20 0.20 0.20 0.20 0.20 0.20 0.20 0.20 0.22 0.22 0.22 0.22 0.22 0.22 0.22 0.22 0.22 0.22 0.24 0.24 0.26 0.26 0.26 0.28 0.28 0.28 0.28 0.28 0.28 0.28 0.26 0.26 0.24 0.24 0.24 0.24 0.24 0.24 0.24 0.26 0.26 0.26 0.26 0.26 0.28
Wind_Speed
33 33 33 32 32 31 31 31 30 29 28 27 26 26 25 24 24 24 24 25 26 26 26 25 25 25 25 26 26 27 27 27 28 29 30 30 31 32 32 33 33 34 34 35 35 35 35 35 35 34 33 33 32 32 32 32 31 31 31 31 32 32 32 32 31 31 31 31 31
33 33 32 32 32 31 31 31 30 29 29 28 27 26 25 24 24 24 24 25 26 26 25 25 24 25 25 26 26 27 27 28 29 30 31 31 32 32 33 33 33 34 34 34 34 35 35 34 34 33 33 32 32 31 31 31 31 30 30 30 30 31 31 30 30 30 29 29 29
33 32 32 31 31 31 31 30 30 29 28 28 27 26 25 25 24 25 25 26 26 26 25 24 25 25 26 26 27 27 28 29 30 31 31 32 32 32 32 32 33 33 33 34 34 33 33 33 33 33 32 32 31 31 31 31 31 30 30 30 30 30 30 30 30 29 29 29 29
32 31 31 30 30 30 30 29 29 28 28 27 26 26 25 25 25 26 26 26 25 25 24 24 25 26 26 27 27 28 29 29 30 31 31 31 31 31 32 32 32 32 32 32 32 32 32 32 31 31 30 30 30 30 30 31 30 30 30 30 30 30 30 29 29 29 28 28 28
31 31 31 30 30 29 29 28 28 27 27 27 26 26 25 26 26 27 26 26 25 24 24 25 26 26 27 27 27 28 29 29 30 30 30 30 30 31 31 31 31 31 30 30 30 30 30 30 30 29 29 29 29 29 30 30 29 29 29 30 30 29 29 29 29 28 28 28 28
30 30 30 30 29 29 29 28 27 27 27 26 26 26 26 27 27 27 26 26 25 25 25 26 26 26 26 26 27 27 28 28 29 29 29 29 29 29 29 29 29 29 29 28 28 28 28 28 28 28 28 28 28 28 28 28 28 28 28 28 29 28 28 28 28 28 28 28 28
29 29 29 29 29 29 28 28 27 27 26 26 26 26 27 27 27 27 27 27 27 26 26 26 25 25 25 25 26 26 27 27 28 28 28 28 29 29 29 28 28 28 27 27 27 27 26 26 26 27 27 27 27 27 27 27 27 27 27 27 27 27 27 27 28 28 28 29 29
29 28 28 28 28 28 28 28 27 27 27 26 26 27 27 27 27 28 28 28 27 27 26 26 25 25 25 25 26 26 27 27 27 27 28 28 28 28 28 27 27 26 26 26 25 25 25 25 25 25 25 25 25 26 26 26 26 26 26 26 26 27 27 27 28 28 29 29 29
29 28 28 28 28 27 27 27 27 27 27 27 27 27 27 27 28 28 28 28 27 27 26 26 25 25 25 26 26 26 26 26 26 26 27 27 27 26 26 25 25 24 24 24 24 23 23 23 24 24 24 24 25 25 25 26 26 26 27 27 27 27 27 28 28 29 29 29 29
29 29 28 28 27 27 27 27 27 27 27 27 27 27 27 27 27 27 27 27 27 27 26 26 26 26 26 26 26 26 25 25 25 25 25 25 24 24 23 23 23 23 23 23 23 23 23 23 24 24 25 25 26 26 26 27 27 27 28 28 28 28 28 29 29 29 29 30 30
29 29 28 28 27 27 27 27 27 27 27 27 27 26 26 26 26 26 26 26 26 26 26 27 27 27 27 26 26 25 25 24 24 24 23 23 22 22 22 22 22 22 22 22 22 23 24 24 25 25 26 26 27 27 27 28 28 28 29 29 29 29 29 30 30 30 30 31 31
28 28 28 28 27 27 27 27 27 27 27 26 26 25 25 25 25 25 25 26 26 26 27 27 27 27 27 26 25 25 24 24 24 23 22 22 21 21 21 21 21 21 22 22 23 24 25 25 26 26 27 27 28 28 28 29 29 29 29 29 30 30 30 30 30 31 31 31 31
28 27 27 27 27 27 27 26 26 26 26 25 25 24 24 24 25 25 25 25 26 27 27 27 27 26 26 25 25 25 24 24 23 22 21 21 20 20 21 21 21 22 22 23 24 24 25 26 26 27 27 28 28 28 29 29 29 29 29 29 29 30 30 30 30 30 30 30 30
27 27 27 27 27 27 26 26 26 25 25 24 24 24 24 25 25 25 25 26 26 26 26 26 26 26 25 25 25 24 24 23 22 21 20 20 20 21 21 21 22 22 23 23 24 25 25 26 26 26 27 27 27 28 28 28 28 28 28 29 29 29 29 29 29 29 29 29 29
27 26 26 26 26 26 25 25 24 24 24 24 24 24 24 24 25 25 25 25 25 25 25 25 25 25 25 25 24 24 23 22 21 21 21 21 21 21 21 22 22 23 23 24 24 25 25 25 26 26 26 27 27 27 27 27 27 27 28 28 28 29 28 29 29 29 29 30 30
26 26 26 25 25 24 24 24 24 23 23 23 24 24 24 24 24 24 24 24 24 24 24 24 24 24 24 24 23 23 22 22 21 21 22 22 22 22 22 22 23 23 24 24 24 25 25 26 26 26 26 27 27 27 27 27 27 27 28 28 29 29 29 29 29 30 31 31 32
25 25 24 24 23 23 23 23 23 23 23 23 23 23 23 23 23 23 23 23 23 23 23 23 23 23 23 23 22 22 22 22 22 22 23 23 23 23 23 23 23 24 24 24 25 25 25 26 26 26 27 27 28 28 28 28 28 28 29 29 30 30 30 30 31 31 32 32 33
23 23 23 23 22 22 22 22 22 22 22 22 22 22 22 22 22 22 22 22 22 22 22 22 22 22 22 22 22 22 22 23 23 23 23 23 23 23 23 23 24 24 24 24 25 25 25 26 26 26 27 27 27 28 28 28 28 29 29 29 30 30 31 31 31 32 32 32 33
22 22 22 22 22 22 21 21 21 21 21 21 21 21 21 21 21 21 21 21 21 21 21 21 21 21 21 21 22 22 22 23 23 23 23 23 23 24 24 24 24 24 24 24 25 25 25 25 26 26 26 26 27 27 27 28 28 28 29 29 29 30 31 31 31 32 32 32 32
20 20 20 20 20 20 20 20 20 20 20 20 20 20 20 20 20 20 20 20 20 20 20 20 20 20 21 21 22 22 22 22 23 23 23 24 24 24 24 24 24 24 24 24 24 25 25 25 25 25 26 26 26 27 27 27 28 28 28 29 29 30 30 31 31 31 32 32 32
18 18 18 19 19 19 19 19 18 18 18 18 18 18 18 19 19 19 19 19 19 18 19 19 20 20 21 21 21 21 22 22 22 22 23 23 23 24 24 24 24 24 24 24 24 24 24 24 25 25 25 26 26 26 27 27 27 28 28 28 29 29 30 30 30 31 31 32 32
16 16 17 17 17 17 17 17 17 17 17 17 17 17 18 18 18 18 18 18 18 18 19 19 20 20 20 20 20 20 21 21 21 22 22 22 22 23 23 23 23 23 23 23 24 24 24 24 24 25 25 25 26 26 26 27 27 28 28 28 29 29 29 30 30 31 31 32 33
15 15 15 15 16 16 16 16 16 16 16 17 17 17 17 17 17 17 17 17 18 18 19 19 19 19 19 19 19 19 19 20 20 21 21 21 21 21 22 22 22 22 23 23 23 24 24 24 24 25 25 25 25 26 26 26 27 27 28 28 29 29 30 31 31 32 33 33 34
14 14 14 15 15 15 15 15 16 16 16 16 16 16 16 16 16 16 17 17 17 17 17 17 17 17 17 17 18 18 18 19 19 19 20 20 20 20 21 21 21 22 22 23 23 23 23 24 24 24 25 25 25 26 26 26 27 28 28 29 30 30 31 32 32 32 33 33 33
13 13 13 13 14 14 14 14 14 14 14 15 15 15 15 15 15 15 15 15 15 14 15 15 15 15 16 16 16 17 17 18 18 18 19 19 19 20 20 21 21 21 22 22 23 23 23 23 24 24 25 25 26 26 27 28 29 29 30 30 31 31 31 31 31 32 32 32 32
11 11 11 12 12 12 12 12 13 13 13 14 14 14 14 14 13 13 13 12 12 13 13 13 14 14 15 15 15 16 16 17 17 18 18 18 19 19 20 20 21 21 22 22 23 23 23 24 24 25 26 26 27 28 28 29 29 29 29 30 30 30 31 31 31 32 32 32 33
9 9 10 10 10 10 11 11 12 12 12 12 12 12 12 11 10 10 10 10 11 11 12 12 13 13 14 14 15 15 16 16 17 17 18 18 19 19 20 20 21 22 22 23 23 24 24 25 25 25 26 26 27 27 27 28 28 29 29 29 30 30 31 32 32 33 33 33 34
8 9 9 9 10 10 10 11 11 11 10 10 10 9 8 8 8 8 8 9 9 10 10 11 11 12 12 13 14 14 15 16 16 17 18 19 19 20 21 21 22 22 23 23 24 24 24 25 25 25 26 26 26 27 28 28 29 29 30 30 31 32 32 33 33 34 34 35 35
9 9 9 10 10 10 9 9 8 8 7 7 6 6 5 5 6 6 7 8 8 9 9 10 11 11 12 13 14 15 16 17 18 19 19 20 20 21 21 21 22 22 22 23 23 24 24 25 25 26 26 27 27 28 29 29 30 31 31 32 32 33 34 34 35 36 36 37 37
9 9 9 9 9 8 7 7 6 5 5 4 3 3 4 4 5 6 6 7 8 9 9 10 11 12 13 15 16 17 18 18 19 19 20 20 20 20 21 21 22 22 23 23 24 25 25 26 26 27 28 28 29 29 30 31 31 32 33 33 34 35 35 36 37 37 38 38 39
9 8 8 7 7 6 6 5 4 4 3 2 2 2 3 4 5 6 7 8 9 10 12 13 14 15 16 17 17 18 18 18 19 19 19 20 20 21 21 22 22 23 24 25 25 26 26 27 28 28 29 30 30 31 31 32 33 34 34 35 36 36 37 37 38 38 39 39 40
8 8 7 7 6 5 4 4 3 2 1 1 2 3 5 6 7 9 10 11 12 13 14 15 15 16 16 17 17 17 18 18 19 19 20 20 21 22 22 23 23 24 25 26 27 27 28 29 29 30 31 31 32 32 33 34 34 35 36 36 37 37 38 38 39 39 40 40 40
8 7 6 5 4 3 2 1 1 1 2 4 5 6 8 9 10 11 12 13 13 14 14 15 15 16 16 17 17 18 18 19 19 20 21 21 22 23 23 24 25 25 26 27 28 29 29 30 31 32 32 33 33 34 34 35 35 36 37 37 38 38 39 39 40 40 41 41 41
6 5 4 2 1 1 2 3 4 5 6 7 8 9 10 11 12 12 12 13 13 13 14 14 15 16 16 17 18 18 19 20 20 21 22 22 23 24 25 25 26 27 28 29 29 30 31 32 32 33 34 34 34 35 35 36 37 37 38 38 39 39 40 40 40 41 41 41 42
3 2 1 2 3 4 5 6 7 8 9 9 10 10 11 11 11 12 12 12 13 13 14 15 15 16 17 18 18 19 20 21 21 22 23 24 24 25 26 27 27 28 29 30 31 32 32 33 33 34 35 35 35 36 36 37 37 38 38 39 39 40 40 40 41 41 41 42 42
2 2 3 4 5 6 7 7 8 8 9 9 10 10 10 11 11 12 12 13 14 14 15 16 16 17 18 19 19 20 21 22 23 24 24 25 26 27 27 28 29 30 31 31 32 33 33 34 34 35 35 36 36 36 37 37 38 39 39 39 40 40 40 41 41 41 41 42 42
2 2 3 4 4 5 6 6 7 7 8 9 9 10 10 11 12 12 13 14 14 15 16 17 18 18 19 20 21 22 22 23 24 25 26 26 27 28 29 29 30 31 32 32 33 34 34 35 35 36 36 36 36 37 37 38 38 39 39 40 40 40 41 41 41 41 42 42 42
1 1 2 2 3 4 4 5 6 7 8 9 9 10 11 12 12 13 14 15 16 17 17 18 19 20 21 21 22 23 24 25 25 26 27 27 28 29 29 30 31 31 32 33 34 34 35 35 35 36 36 36 37 37 38 38 39 39 40 40 40 41 41 41 41 42 42 43 43
1 2 2 3 4 4 5 6 7 7 8 9 10 11 12 13 14 15 15 16 17 18 19 20 20 21 22 23 24 24 25 26 26 27 28 28 29 30 30 31 31 32 33 33 34 34 35 35 36 36 37 37 37 38 38 39 39 40 40 40 41 41 41 41 42 42 43 43 44
2 3 4 4 5 6 6 7 8 9 10 11 12 13 14 14 15 16 17 18 18 19 20 21 22 22 23 24 25 25 26 26 27 27 28 29 30 30 31 31 32 32 33 34 34 35 35 35 36 36 37 37 37 38 38 39 40 40 40 41 41 41 42 42 42 43 43 44 45
4 5 6 6 7 7 8 9 10 11 12 12 13 14 15 16 17 17 18 19 20 20 21 22 23 23 24 25 25 26 26 27 27 28 29 30 30 31 31 32 32 33 33 34 34 35 35 36 36 36 37 37 38 38 39 39 40 40 41 41 41 42 42 43 43 44 44 45 45
Wind_Direction
229 230 230 230 230 232 233 233 232 232 232 232 233 234 235 236 237 240 242 244 245 246 246 247 247 248 249 250 252 254 258 261 263 265 266 267 268 268 268 268 268 268 268 268 268 268 268 268 267 267 266 266 267 268 268 269 269 268 268 268 268 268 269 269 270 270 270 268 267
229 230 230 230 230 231 232 231 230 230 231 232 233 234 236 238 239 241 244 245 246 246 246 247 248 248 250 251 254 256 259 262 264 266 267 268 269 269 269 269 269 268 268 268 268 268 267 267 267 266 265 265 265 266 268 268 269 269 269 269 268 268 269 269 269 269 270 269 268
229 230 230 230 229 229 229 229 229 230 231 232 233 235 237 239 241 242 244 245 245 246 247 247 249 250 252 254 256 259 261 263 265 266 267 268 269 269 269 269 269 269 269 268 268 268 267 267 266 266 265 264 264 265 266 267 268 268 269 269 269 268 268 268 268 268 269 269 270
228 228 227 227 227 227 228 228 229 230 231 233 234 235 237 239 241 242 243 244 245 246 247 249 251 253 255 257 259 261 263 264 266 267 268 268 269 269 269 270 270 270 270 269 269 268 268 267 266 265 264 264 264 264 265 266 267 267 268 268 268 268 267 267 267 267 268 268 269
226 226 226 227 227 228 229 230 230 231 233 234 235 236 238 239 241 242 243 244 246 247 249 252 254 256 258 259 261 262 264 265 267 268 268 269 269 270 270 270 270 270 270 269 269 268 267 266 264 263 263 263 263 264 264 265 265 266 266 267 267 266 266 266 266 266 267 268 268
226 226 227 227 228 229 230 231 232 232 234 235 236 237 238 239 240 242 244 246 248 250 252 254 256 258 259 260 262 263 265 266 267 268 269 270 270 270 270 270 270 270 269 268 267 266 265 263 262 262 262 262 262 263 263 264 264 265 265 266 266 266 266 267 267 267 268 269 269
226 226 227 228 229 230 231 232 233 234 235 236 236 237 238 239 240 242 245 247 249 251 253 255 257 258 260 262 264 265 267 268 269 269 270 270 269 269 269 269 269 268 267 266 265 264 262 261 260 259 260 260 261 262 263 263 264 265 266 266 267 267 267 268 268 268 269 270 270
226 227 228 229 230 231 232 233 233 234 235 235 236 237 238 239 241 243 245 248 250 252 254 255 257 259 261 263 265 267 269 269 270 270 269 268 268 268 267 267 266 265 264 264 263 262 262 261 260 260 261 262 263 264 265 266 267 268 269 270 269 269 269 269 270 270 270 270 270
226 227 229 230 231 231 232 232 233 234 234 235 236 238 239 241 242 244 246 248 250 252 254 256 257 260 262 264 266 268 269 269 269 269 268 267 267 266 266 265 264 263 263 264 264 264 264 264 265 266 267 268 269 270 270 271 272 272 272 272 272 272 271 271 271 270 270 270 269
226 227 228 230 231 231 232 232 233 234 234 235 237 239 241 242 244 246 248 249 251 252 254 255 257 260 262 264 266 267 268 268 268 268 268 267 267 266 265 264 264 264 265 266 267 267 268 269 270 270 271 271 272 272 272 272 272 272 272 272 271 271 271 271 270 270 270 270 269
226 227 228 229 230 231 232 232 233 234 235 237 239 241 242 244 246 247 248 249 251 252 254 255 257 260 262 263 265 266 266 267 268 268 268 268 267 266 266 266 266 266 267 268 269 269 269 269 269 269 269 269 269 269 269 269 269 268 268 268 268 268 268 269 269 269 269 268 268
226 227 228 229 230 232 232 233 234 235 237 238 240 242 244 245 247 248 249 250 251 252 254 255 257 259 261 262 264 265 266 267 268 268 268 268 268 267 267 268 268 269 269 269 269 268 268 268 267 267 267 267 267 267 266 266 266 266 265 265 265 265 266 266 267 267 267 267 267
227 227 228 229 230 232 233 233 235 236 237 239 241 242 244 246 247 248 249 250 251 253 254 256 257 259 260 262 263 265 266 267 268 268 268 269 269 270 270 270 270 269 268 268 267 267 266 266 266 265 265 265 265 265 265 265 265 265 265 265 265 265 266 266 267 267 267 267 267
227 228 228 229 230 231 232 233 235 236 237 239 240 242 244 245 246 247 248 250 251 253 254 256 257 259 260 262 264 265 266 267 268 269 270 271 272 272 271 270 268 267 266 266 265 265 264 264 264 264 264 264 264 265 265 265 266 266 266 267 267 268 268 269 269 269 269 269 269
227 228 229 229 230 231 232 233 234 235 237 238 240 241 243 244 246 247 248 250 252 253 255 256 258 260 261 263 264 265 266 267 268 270 270 271 270 269 267 266 265 264 264 264 264 263 263 263 263 263 263 264 264 265 266 267 267 268 268 269 270 271 271 271 271 271 270 270 270
226 228 229 229 229 230 231 232 233 234 235 236 238 239 241 243 245 247 249 251 253 254 256 258 260 262 263 264 265 265 266 267 267 267 267 266 265 264 264 263 263 264 264 264 264 264 264 264 265 265 265 266 266 267 268 268 269 269 270 270 271 271 271 270 270 270 270 271 272
224 226 226 227 227 227 228 229 230 232 233 234 236 238 240 243 245 248 250 252 254 256 258 260 262 263 264 264 264 264 264 263 263 262 262 262 261 261 262 262 263 264 264 265 265 265 266 267 267 268 268 269 269 270 270 271 271 271 271 271 271 271 270 270 270 271 272 273 274
220 221 221 222 222 223 224 226 227 229 231 233 235 237 240 243 246 249 251 254 256 258 261 262 263 263 263 262 261 260 260 259 259 259 259 260 260 261 261 262 263 264 265 265 266 267 268 269 269 270 271 271 272 272 273 274 274 274 274 274 274 274 274 274 274 275 276 276 276
212 213 215 216 217 219 221 223 225 227 230 232 235 238 241 244 247 249 252 255 258 260 261 262 262 261 259 258 257 257 256 256 257 258 259 260 260 261 262 263 264 265 266 267 268 269 270 270 271 272 273 274 275 275 276 277 277 278 278 278 278 278 278 278 278 279 279 279 279
205 207 209 212 214 216 218 221 223 226 229 232 236 239 242 245 247 250 253 256 258 259 260 259 258 256 254 253 253 254 254 255 256 258 259 260 262 263 264 266 267 268 269 270 271 272 273 273 274 275 276 277 277 278 279 280 280 280 280 281 281 281 281 281 281 281 282 281 281
200 202 205 208 211 213 216 219 222 225 228 231 235 238 241 244 247 250 253 255 256 256 255 253 251 250 250 250 251 253 254 256 257 259 261 262 264 266 267 269 271 272 273 274 275 276 277 277 278 278 279 279 280 280 281 281 282 282 282 282 282 282 282 282 283 283 283 283 283
196 199 202 205 208 211 214 217 220 224 227 230 233 237 240 243 246 248 250 250 250 249 248 247 247 248 249 251 253 256 258 260 261 263 265 267 268 270 272 273 275 276 277 278 279 280 280 281 281 281 281 281 281 282 282 282 282 282 282 282 282 283 283 283 283 284 284 284 283
194 197 200 203 206 209 213 216 220 223 227 230 233 236 239 242 243 244 244 244 244 244 244 246 248 251 254 256 259 262 264 266 267 269 271 272 274 275 277 278 279 280 281 282 282 283 283 283 283 283 283 283 283 283 283 283 283 283 283 284 284 284 284 283 283 283 282 282 281
194 197 200 204 207 210 214 217 221 224 228 231 234 236 238 239 239 239 239 241 242 244 247 250 253 257 260 263 265 267 270 272 273 275 276 277 278 279 280 281 282 283 284 284 285 285 285 285 285 285 285 285 286 286 286 286 286 285 285 284 284 283 282 282 281 281 281 280 280
195 198 201 205 208 212 215 219 223 226 229 232 234 234 234 235 235 237 239 242 245 249 253 256 259 262 265 268 270 272 273 275 277 278 279 279 280 280 281 281 282 283 284 285 286 287 287 287 287 287 287 287 286 286 286 285 284 284 283 282 282 282 282 282 282 282 282 282 282
195 199 202 206 210 213 217 221 224 227 228 229 230 230 231 233 236 239 243 247 252 255 258 261 264 267 269 271 273 274 275 277 278 278 279 280 280 281 281 282 283 284 285 286 287 288 287 287 287 286 285 284 284 283 283 282 282 282 282 282 282 283 283 283 283 283 283 283 283
194 199 203 206 210 213 216 219 221 222 223 224 226 228 231 235 239 244 250 254 258 261 263 266 268 270 272 273 274 275 276 277 279 280 281 282 283 284 284 284 284 285 285 286 286 286 286 286 285 285 284 283 283 283 283 283 283 283 283 283 283 283 283 283 283 283 283 282 282
192 195 199 201 204 206 208 211 212 214 216 219 223 228 233 239 246 252 256 260 262 265 267 269 271 272 273 274 276 278 280 281 283 284 285 286 286 285 285 285 285 284 285 285 285 286 286 286 286 286 286 285 285 284 284 284 284 284 283 283 283 283 283 283 283 283 283 282 282
183 187 189 192 194 196 198 200 202 205 210 215 221 228 237 246 252 257 261 264 266 268 271 273 275 277 278 280 281 283 284 285 285 285 285 285 285 285 285 285 285 285 285 285 285 285 286 286 286 286 286 286 285 284 284 284 284 284 284 283 283 283 283 283 283 283 283 283 283
170 173 176 179 181 182 184 186 188 191 197 204 215 228 241 251 258 264 269 272 274 276 278 280 281 282 282 282 282 282 283 283 283 284 284 284 285 285 285 286 286 285 285 286 285 286 286 286 286 286 286 286 286 285 285 285 285 285 285 284 284 284 284 284 284 284 284 284 285
154 156 158 159 159 160 160 161 162 164 170 184 212 240 256 266 272 277 280 281 281 281 281 280 280 280 279 280 280 281 282 283 283 284 285 285 285 285 285 286 286 286 286 286 286 286 286 287 287 287 287 287 287 286 286 286 286 286 286 286 286 286 286 286 286 286 286 286 286
137 137 136 135 134 134 135 136 139 146 170 225 257 270 276 278 279 280 280 280 279 278 277 277 278 279 279 280 281 282 283 284 284 285 285 285 286 286 286 286 286 287 287 287 288 288 288 288 288 289 289 289 288 288 288 288 288 288 288 288 287 287 287 287 287 287 287 287 287
120 119 117 116 116 119 125 141 203 251 263 269 272 275 276 276 276 276 276 277 277 278 278 279 280 281 281 282 283 284 284 285 286 286 287 287 287 287 288 288 288 288 289 289 290 290 290 290 290 290 291 291 290 290 290 290 290 290 289 289 289 289 289 289 288 288 288 288 287
102 102 103 107 127 222 248 253 255 257 259 261 265 269 272 274 275 277 278 279 280 281 281 282 282 283 283 284 284 286 286 287 288 288 289 289 289 290 290 290 290 291 292 292 292 292 292 292 292 292 293 293 292 292 292 291 291 291 290 290 290 289 289 289 289 288 288 287 287
103 115 159 225 243 248 249 249 249 251 255 259 265 271 275 278 279 280 281 282 283 284 284 284 285 285 286 287 288 289 289 290 291 291 292 292 292 292 293 293 293 294 294 295 294 294 294 294 294 294 294 294 293 293 292 292 291 291 290 290 290 289 289 289 288 288 287 287 286
179 211 230 241 246 249 251 252 253 257 262 268 273 278 281 282 283 284 285 286 287 287 288 289 289 290 291 291 292 292 293 293 294 294 295 295 295 295 295 295 295 296 297 297 296 296 295 295 295 295 295 294 293 292 292 292 291 291 290 290 290 289 289 289 288 288 287 287 286
211 231 245 252 256 259 261 263 266 270 275 279 282 284 286 287 288 289 290 291 292 292 293 293 294 294 295 295 295 296 296 297 297 297 297 298 297 297 297 297 297 297 297 297 296 296 295 295 295 294 294 293 292 292 292 291 291 291 291 290 290 290 290 289 289 288 288 287 287
245 272 277 278 277 278 280 281 283 285 287 289 290 292 293 293 294 294 295 296 296 297 297 297 297 298 298 298 299 299 299 299 299 299 299 299 298 298 297 297 296 296 296 296 295 295 295 295 295 294 294 293 293 293 293 292 292 292 292 292 291 291 291 290 290 289 289 289 288
328 315 309 305 301 299 298 299 298 298 298 299 299 299 299 299 299 299 300 300 300 300 300 301 301 301 301 301 301 301 300 300 300 299 299 298 298 297 297 296 296 295 295 296 296 296 296 296 296 296 295 295 294 294 294 294 294 293 293 293 292 292 292 291 291 290 290 290 290
337 328 324 319 315 312 310 309 308 307 306 305 305 305 304 304 304 304 304 304 303 303 303 303 302 302 302 302 301 301 300 299 299 299 298 298 298 298 297 297 296 296 296 297 297 297 297 297 297 297 297 296 296 296 295 295 295 295 294 294 293 293 293 292 292 291 291 291 291
341 335 331 326 322 319 317 315 313 312 311 310 309 309 308 308 307 307 306 306 305 304 304 303 302 302 301 301 300 300 300 300 299 299 299 299 299 299 299 298 298 298 298 298 298 299 298 298 298 298 298 297 297 297 296 296 296 296 295 295 294 294 293 293 292 292 292 291 291